Regional Weather Roundup
Issued by NWS Charleston, SC

Current Version | Previous Version | Text Only | Print | Product List | Glossary Off
Versions: 1 2 3 4 5 6 7 8 9 10 11 12 13 14 15 16 17 18 19 20 21 22 23 24 25 26 27 28 29 30 31 32 33 34 35 36 37 38 39 40 41 42 43 44 45 46 47 48 49 50
000 ASUS42 KCHS 042212 RWRCHS REGIONAL WEATHER ROUNDUP NATIONAL WEATHER SERVICE CHARLESTON SC 500 PM EST SUN DEC 04 2016 NOTE: "FAIR" INDICATES FEW OR NO CLOUDS BELOW 12,000 FEET WITH NO SIGNIFICANT WEATHER AND/OR OBSTRUCTIONS TO VISIBILITY. NOT ALL STATIONS ARE QUALITY CONTROLLED. USE DATA WITH CAUTION... ESPECIALLY DEWPOINT OBSERVATIONS. SCZ027-030-031-034>040-042>050-042300- ...SOUTHEAST SOUTH CAROLINA... CITY SKY/WX TMP DP RH WIND PRES REMARKS N CHARLESTON CLOUDY 57 49 74 NE10 30.11S WATERFRONT PRK N/A 58 53 83 NE10 30.09F MOUNT PLEASANT NOT AVBL JOHNS ISLAND CLOUDY 59 52 77 NE13 30.10S PINOPOLIS N/A 52 46 82 NE14 30.04F MONCKS CORNER CLOUDY 48 45 87 E6 30.11F SUMMERVILLE CLOUDY 52 48 87 NE6 30.11F BEAUFORT MCAS CLOUDY 61 54 77 E6 30.08S BEAUFORT ARPT CLOUDY 61 55 82 E7 30.07F HAZE HILTON HEAD IS CLOUDY 63 57 82 NE5G12 30.06F WALTERBORO CLOUDY 55 46 71 NE5 30.10F ALLENDALE LGT RAIN 50 46 87 N6 30.09S ...SOUTHERN MIDLANDS AND PEE DEE... CITY SKY/WX TMP DP RH WIND PRES REMARKS GEORGETOWN NOT AVBL KINGSTREE DRIZZLE 45 39 81 N5 30.14F ORANGEBURG CLOUDY 48 43 82 E5 30.11F BARNWELL NOT AVBL AIKEN RAIN 43 43 100 NE6 30.13F MANNING NOT AVBL COLUMBIA LGT RAIN 47 42 83 NE7 30.12F SUMTER LGT RAIN 46 41 83 E6 30.11F FLORENCE CLOUDY 47 42 83 E7 30.16F MYRTLE BEACH CLOUDY 50 37 62 NE9 30.17F N MYRTLE BEACH CLOUDY 48 40 73 NE7 30.15F $$ GAZ063-065-086>088-099>101-113>116-118-119-134>141-150-042300- ...SOUTHEAST GEORGIA... CITY SKY/WX TMP DP RH WIND PRES REMARKS SAVANNAH ARPT CLOUDY 63 54 72 NE9 30.05F HUNTER AAF CLOUDY 63 60 88 E5 30.02F FORT STEWART CLOUDY 64 57 77 CALM 30.01F STATESBORO CLOUDY 60 55 83 CALM 30.06F SYLVANIA CLOUDY N/A N/A N/A NE6 30.08F CLAXTON CLOUDY 61 58 88 NE7 30.05S ...CSRA...CENTRAL AND FAR SOUTHEAST GEORGIA... CITY SKY/WX TMP DP RH WIND PRES REMARKS THOMSON CLOUDY 46 46 100 E3 30.13F AUGUSTA-BUSH RAIN 48 44 86 NE5 30.11F FOG AUGUSTA-DANIEL LGT RAIN 47 42 83 E6 30.11F SWAINSBORO CLOUDY 52 46 82 NE7 30.05F VIDALIA CLOUDY 63 59 88 NE3 30.03F EASTMAN CLOUDY 58 42 54 NE8 30.02F HAZLEHURST CLOUDY 67 61 81 E3 29.99F ALMA MOCLDY 69 61 75 E5 29.99F WAYCROSS MOCLDY 75 66 74 SE8 29.99F JESUP CLOUDY 68 64 88 E5 30.02F BAXLEY MOCLDY 68 63 83 E5 30.00F BRUNSWICK MOCLDY 72 64 78 SE5 30.03F SAINT SIMONS MOCLDY 69 63 81 SE7 30.02F $$ SCZ027-028-034-036>038-045-046-048>050-GAZ119-141-042300- ...LAKE AND SUPPLEMENTAL COASTAL OBSERVATIONS... STATION/POSITION TIME TEMP WIND PRES WAVE SWELL AIR SEA DIR/SP/G HT/PER HT/PER/DIR (UTC) (F) (DEG/KT/KT) (MB) (FT/S) (FT/S/D) WINYAH BAY 2045 53 40/ 12 1021.0 LAKE MURRAY 2120 46 30/ 2/ 4 1020.0 ACE BASIN NERRS 2045 61 50/ 5 1019.0 FORT PULASKI 2142 63 62 80/ 10/ 12 1017.6F SAPELO ISLAND 2100 69 100/ 6 1017.0 $$ ANZ835-935-AMZ111-154-330-350-352-354-370-450-454-472-042300- ...C-MAN AND BUOY OBSERVATIONS... STATION/POSITION TIME TEMP WIND PRES WAVE SWELL AIR SEA DIR/SP/G HT/PER HT/PER/DIR (UTC) (F) (DEG/KT/KT) (MB) (FT/S) (FT/S/D) BUOY 41004 2150 70 74 130/ 12/ 16 1018.7F 4/ 5 2/110/ 8 BUOY 41008 2150 67 65 120/ 12/ 14 1016.8F 3/ 5 2/ 80/ 6 FOLLY BEACH CMAN 2100 58 40/ 19/ 22 1019.8F CAPERS NEARSHORE 2108 59 61 60/ 19/ 27 1019.0F FRIPP NEARSHORE 2108 62 62 60/ 14/ 17 1018.0F STATION/POSITION TIME TEMP WIND PRES WAVE SWELL AIR SEA DIR/SP/G HT/PER HT/PER/DIR (UTC) (F) (DEG/KT/KT) (MB) (FT/S) (FT/S/D) 5E ST. MARYS GA 2200 66 N/A 3/ 5 FRYING PAN BUOY 2200 62 74 50/ 16/ 19 1021.0 BUOY 41025 2150 55 75 10/ 10/ 14 1023.3F 4/ 8 5/ 60/ 8 CAPE LOOKOUT NC 2100 50 30/ 10/ 12 1022.8S BUOY 41002 2150 66 73 130/ 4/ 6 1021.6R 4/ 9 3/ 10/ 9 BUOY 41010 NOT AVBL ST AUGUSTINE FL 2200 70 68 140/ 14/ 15 1017.2F $$

USA.gov is the U.S. government's official web portal to all federal, state and local government web resources and services.